Location: Bittkow
(50.3000°N, 19.0000°E)
Time: 03:34:48
(UTC+00:00)

Cosmos 1666 - Pass Details

Date: 19 September 2020
Orbit: 496 x 521 km, 82.5° (Epoch: 19 October)

Event Time Altitude Azimuth Distance (km) Brightness Sun altitude
Rises 03:00:16 0° 350° (N) 2,653 6.4 -14.2°
Reaches altitude 10° 03:02:26 10° 351° (N) 1,757 5.5 -13.9°
Maximum altitude 03:06:17 85° 80° (E) 523 2.7 -13.3°
Drops below altitude 10° 03:10:05 10° 169° (S) 1,727 5.3 -12.7°
Sets 03:12:11 0° 170° (S) 2,603 6.2 -12.4°
